Weather History for KLWT - February, 2013

Change the Weather History Date:

Thursday, February 14, 2013

  Actual Average Record
Temperature  
Mean Temperature 21 °F 25 °F  
Max Temperature 27 °F 36 °F 65 °F (1921)
Min Temperature 14 °F 15 °F -34 °F (1936)
Degree Days  
Heating Degree Days 44 40  
Month to date heating degree days 531 563  
Since 1 July heating degree days 4956 5268  
Cooling Degree Days 0 0  
Month to date cooling degree days 0 0  
Year to date cooling degree days 0 0  
Moisture  
Dew Point 16 °F    
Average Humidity 69    
Maximum Humidity 92    
Minimum Humidity 46    
Precipitation  
Precipitation 0.02 in 0.02 in 0.28 in (1918)
Month to date precipitation 0.12 0.22  
Year to date precipitation 1.11 0.79  
Snow  
Snow 0.00 in - - ()
Snow Depth 3.00 in    
Sea Level Pressure  
Sea Level Pressure 30.30 in    
Wind  
Wind Speed 6 mph (West)    
Max Wind Speed 22 mph    
Max Gust Speed 26 mph    
Visibility 6 miles    
Events Snow    
T = Trace of Precipitation, MM = Missing Value Source: NWS Daily Summary

Daily Weather History Graph

Daily Weather History Graph

Search for Another Location

Airport or City:

Trip Planner

Search our weather history database for the weather conditions in past years. The results will help you decide how hot, cold, wet, or windy it might be!

Date:

Astronomy

Feb. 14, 2013 Rise Set
Actual Time 7:23 AM MST 5:41 PM MST
Civil Twilight 6:52 AM MST 6:12 PM MST
Nautical Twilight 6:16 AM MST 6:48 PM MST
Astronomical Twilight 5:41 AM MST 7:23 PM MST
Moon 9:05 AM MST (2/14) 11:11 PM MST (2/14)
Length of Visible Light 11h 20m
Length of Day
10h 17m
Waxing Crescent, 22% of the Moon is Illuminated
Feb 14
Waxing Crescent
Feb 17
First Quarter
Feb 25
Full
Mar 4
Last Quarter
Mar 11
New

Hourly Weather History & Observations

Time (MST) Temp. Windchill Dew Point Humidity Pressure Visibility Wind Dir Wind Speed Gust Speed Precip Events Conditions
12:03 AM 21.2 °F 10.1 °F 19.4 °F 93% 30.15 in 5.0 mi WSW 10.4 mph - 0.00 in Snow Light Snow
12:22 AM 21.2 °F 10.9 °F 19.4 °F 93% 30.16 in 2.0 mi WSW 9.2 mph - 0.01 in Snow Light Snow
12:29 AM 21.2 °F 9.5 °F 19.4 °F 93% 30.16 in 1.0 mi WSW 11.5 mph - 0.01 in Snow Light Snow
12:54 AM 21.0 °F 9.3 °F 19.0 °F 92% 30.26 in 1.0 mi WSW 11.5 mph - 0.01 in Snow Light Snow
1:19 AM 21.2 °F 6.8 °F 19.4 °F 93% 30.17 in 1.0 mi West 17.3 mph - 0.00 in Snow Light Snow
1:46 AM 21.2 °F 8.9 °F 19.4 °F 93% 30.18 in 2.0 mi West 12.7 mph - 0.00 in Snow Light Snow
1:54 AM 21.0 °F 8.6 °F 19.0 °F 92% 30.28 in 1.2 mi WNW 12.7 mph - 0.01 in Snow Light Snow
2:04 AM 21.2 °F 6.8 °F 19.4 °F 93% 30.18 in 1.5 mi West 17.3 mph - 0.00 in Snow Light Snow
2:12 AM 21.2 °F 6.8 °F 19.4 °F 93% 30.19 in 2.0 mi West 17.3 mph - 0.00 in Snow Light Snow
2:20 AM 21.2 °F 5.2 °F 19.4 °F 93% 30.19 in 1.8 mi West 21.9 mph 26.5 mph 0.00 in Snow Light Snow
2:29 AM 21.2 °F 7.8 °F 19.4 °F 93% 30.20 in 0.8 mi WNW 15.0 mph - 0.00 in Snow Light Snow
2:49 AM 21.2 °F 7.3 °F 19.4 °F 93% 30.20 in 1.0 mi West 16.1 mph - 0.00 in Snow Light Snow
2:54 AM 21.0 °F 6.6 °F 19.0 °F 92% 30.32 in 1.0 mi West 17.3 mph - 0.00 in Snow Light Snow
3:15 AM 21.2 °F 6.0 °F 19.4 °F 93% 30.21 in 1.8 mi West 19.6 mph 26.5 mph 0.00 in Snow Light Snow
3:17 AM 21.2 °F 6.4 °F 19.4 °F 93% 30.21 in 2.0 mi West 18.4 mph 26.5 mph 0.00 in Snow Light Snow
3:37 AM 19.4 °F 5.0 °F 17.6 °F 93% 30.21 in 5.0 mi WNW 16.1 mph 24.2 mph 0.00 in Snow Light Snow
3:54 AM 19.9 °F 4.8 °F 18.0 °F 92% 30.32 in 7.0 mi West 18.4 mph - 0.00 in   Overcast
4:09 AM 21.2 °F 6.4 °F 17.6 °F 86% 30.21 in 7.0 mi West 18.4 mph - N/A   Overcast
5:33 AM 19.4 °F 12.8 °F 17.6 °F 93% 30.25 in 10.0 mi SSW 4.6 mph - N/A   Overcast
5:54 AM 19.9 °F 12.1 °F 16.0 °F 85% 30.39 in 10.0 mi WSW 5.8 mph - N/A   Overcast
6:07 AM 21.2 °F 10.9 °F 15.8 °F 80% 30.26 in 10.0 mi West 9.2 mph 17.3 mph N/A   Overcast
6:20 AM 21.2 °F 12.6 °F 15.8 °F 80% 30.26 in 10.0 mi SW 6.9 mph 16.1 mph N/A   Overcast
6:54 AM 19.9 °F 7.9 °F 15.1 °F 81% 30.40 in 10.0 mi West 11.5 mph - N/A   Overcast
7:54 AM 19.0 °F 6.8 °F 12.9 °F 77% 30.41 in 10.0 mi WNW 11.5 mph 20.7 mph N/A   Scattered Clouds
8:54 AM 19.0 °F 13.9 °F 12.9 °F 77% 30.44 in 10.0 mi WNW 3.5 mph - N/A   Clear
9:54 AM 17.1 °F - 12.0 °F 81% 30.44 in 10.0 mi Calm Calm - N/A   Clear
10:54 AM 19.0 °F 11.1 °F 12.0 °F 74% 30.45 in 10.0 mi SE 5.8 mph - N/A   Mostly Cloudy
11:54 AM 23.0 °F - 10.9 °F 60% 30.43 in 10.0 mi Calm Calm - N/A   Partly Cloudy
12:54 PM 25.0 °F - 10.9 °F 55% 30.40 in 10.0 mi Calm Calm - N/A   Clear
1:54 PM 25.0 °F - 10.0 °F 53% 30.38 in 10.0 mi Calm Calm - N/A   Clear
2:54 PM 25.0 °F - 10.9 °F 55% 30.38 in 10.0 mi Calm Calm - N/A   Clear
3:54 PM 25.0 °F - 7.0 °F 46% 30.38 in 10.0 mi Calm Calm - N/A   Clear
4:54 PM 19.0 °F - 10.0 °F 68% 30.39 in 10.0 mi Calm Calm - N/A   Scattered Clouds
5:54 PM 19.9 °F 13.4 °F 9.0 °F 62% 30.39 in 10.0 mi ESE 4.6 mph - N/A   Overcast
6:54 PM 17.1 °F 10.0 °F 9.0 °F 71% 30.40 in 10.0 mi SE 4.6 mph - N/A   Scattered Clouds
7:54 PM 17.1 °F 10.0 °F 12.0 °F 81% 30.39 in 10.0 mi East 4.6 mph - N/A   Overcast
8:54 PM 18.0 °F - 12.0 °F 78% 30.38 in 10.0 mi Calm Calm - N/A   Overcast
9:54 PM 21.0 °F - 15.1 °F 78% 30.38 in 10.0 mi Calm Calm - N/A   Overcast
10:54 PM 25.0 °F 20.7 °F 17.1 °F 72% 30.38 in 10.0 mi North 3.5 mph - N/A   Overcast
11:33 PM 26.6 °F 22.6 °F 19.4 °F 74% 30.25 in 3.0 mi WNW 3.5 mph - 0.00 in Snow Light Snow
11:42 PM 24.8 °F 20.5 °F 19.4 °F 80% 30.25 in 2.0 mi West 3.5 mph - 0.00 in Snow Light Snow
11:54 PM 25.0 °F 19.3 °F 21.0 °F 85% 30.39 in 1.8 mi West 4.6 mph - 0.00 in Snow Light Snow